Stations météo

réclame
Mon MeteoGroup
Arkona, Allemagne (10091): Température de l'air & dewpoint: 09.12.2018 12:00:00 - 15.12.2018 12:00:00 (CET)Arkona, Allemagne (10091): Température de l'air 5cm & Température de l'air -5cm: 09.12.2018 12:00:00 - 15.12.2018 12:00:00 (CET)Arkona, Allemagne (10091): Température de l'air -20cm & Température de l'air -100cm: 09.12.2018 12:00:00 - 15.12.2018 12:00:00 (CET)Arkona, Allemagne (10091): water temperature: 09.12.2018 12:00:00 - 15.12.2018 12:00:00 (CET)Arkona, Allemagne (10091): Vitesse du vent & gusts: 09.12.2018 12:00:00 - 15.12.2018 12:00:00 (CET)Arkona, Allemagne (10091): Direction du vent: 09.12.2018 12:00:00 - 15.12.2018 12:00:00 (CET)Arkona, Allemagne (10091): reduced air pressure: 09.12.2018 12:00:00 - 15.12.2018 12:00:00 (CET)Arkona, Allemagne (10091): visibility: 09.12.2018 12:00:00 - 15.12.2018 12:00:00 (CET)Arkona, Allemagne (10091): Ensoleillement: 09.12.2018 12:00:00 - 15.12.2018 12:00:00 (CET)Arkona, Allemagne (10091): Quantités de précipitations: 09.12.2018 12:00:00 - 15.12.2018 12:00:00 (CET)
Date & Time tt [°C] td [°C] tt 5cm [°C] tt -5cm [°C] tt -20cm [°C] tt -100cm [°C] tw [°C] ff [km/h] ff [knt] fx [km/h] fx [knt] dd ppp [hPa] vv [km] sd [min] rr [mm]
15.12.2018 12:00:00 1,1 -1,7 1,5 1,9 2,4 7,4 6,9 10 6 12 7 WSW 1030,6 44 0 0,0
15.12.2018 11:00:00 0,9 -2,0 1,1 1,5 2,4 7,4 6,9 9 5 12 7 WSW 1031,3 39 0 0,0
15.12.2018 10:00:00 0,4 -2,6 0,4 1,0 2,4 7,4 6,9 9 5 11 6 WSW 1031,3 39 0 0,0
15.12.2018 09:00:00 0,1 -2,0 -0,1 0,7 2,4 7,4 7,0 8 4 9 5 WSW 1031,2 34 0 0,0
15.12.2018 08:00:00 0,2 -2,9 0,0 0,8 2,4 7,4 7,0 7 4 9 5 WSW 1031,2 48 0 0,0
15.12.2018 07:00:00 0,3 -3,0 0,2 0,8 2,4 7,4 6,9 8 4 14 7 WSW 1031,2 48 0 0,0
15.12.2018 06:00:00 0,3 -2,8 0,2 0,8 2,4 7,4 7,0 9 5 10 6 WSW 1030,9 40 0 0,0
15.12.2018 05:00:00 0,6 -2,6 0,3 0,8 2,5 7,4 7,0 6 3 16 9 SW 1030,9 42 0 0,0
15.12.2018 04:00:00 1,2 -3,5 0,9 0,8 2,5 7,4 7,0 11 6 20 11 S 1030,7 60 0 0,0
15.12.2018 03:00:00 1,3 -3,7 0,9 0,7 2,5 7,4 6,9 13 7 22 12 SE 1030,9 48 0 0,0
15.12.2018 02:00:00 1,4 -3,7 1,1 0,7 2,6 7,4 6,9 17 9 29 16 SE 1031,0 49 0 0,0
15.12.2018 01:00:00 1,4 -3,8 1,0 0,8 2,6 7,4 7,0 19 10 37 20 SE 1030,9 43 0 0,0
15.12.2018 00:00:00 1,4 -3,0 1,1 0,8 2,7 7,4 7,0 23 12 37 20 ESE 1030,8 42 0 0,0
14.12.2018 23:00:00 1,5 -4,2 1,2 0,9 2,7 7,5 7,0 27 15 42 23 ESE 1030,7 65 0 0,0
14.12.2018 22:00:00 1,9 -2,7 1,4 1,0 2,8 7,5 7,0 14 8 39 21 E 1030,6 53 0 0,0
14.12.2018 21:00:00 2,0 -2,4 1,6 1,1 2,8 7,5 7,0 11 6 31 17 E 1030,5 54 0 0,0
14.12.2018 20:00:00 1,9 -2,8 1,5 1,1 2,9 7,5 7,0 15 8 28 15 ESE 1030,1 41 0 0,0
14.12.2018 19:00:00 1,7 -3,5 1,3 1,0 3,0 7,5 7,0 16 9 29 16 ESE 1030,1 38 0 0,0
14.12.2018 18:00:00 1,7 -2,7 1,2 1,1 3,0 7,5 7,1 14 7 32 17 E 1029,8 44 0 0,0
14.12.2018 17:00:00 1,6 -2,8 1,2 1,2 3,1 7,5 7,1 20 11 33 18 ESE 1029,5 45 0 0,0
14.12.2018 16:00:00 1,7 -2,8 1,3 1,4 3,2 7,5 7,1 8 4 32 18 ENE 1029,2 40 0 0,0
14.12.2018 15:00:00 1,6 -2,7 1,4 1,7 3,2 7,5 7,1 14 8 44 24 E 1029,0 42 0 0,0
14.12.2018 14:00:00 1,6 -2,6 1,5 1,9 3,2 7,5 7,1 19 10 41 22 E 1028,7 39 0 0,0
14.12.2018 13:00:00 1,7 -2,3 1,6 2,0 3,2 7,5 7,1 10 6 45 25 E 1028,7 50 0 0,0
14.12.2018 12:00:00 2,1 -2,1 1,9 1,9 3,2 7,5 7,1 22 12 47 25 E 1028,4 40 0 0,0
14.12.2018 11:00:00 2,3 -1,5 2,0 2,0 3,2 7,5 7,1 13 7 44 24 E 1028,4 50 0 0,0
14.12.2018 10:00:00 2,3 -1,3 2,0 1,8 3,3 7,5 7,1 23 12 47 26 E 1028,2 36 0 0,0
14.12.2018 09:00:00 3,0 -1,6 2,4 1,8 3,3 7,5 7,1 19 10 44 24 E 1027,4 42 0 0,0
14.12.2018 08:00:00 2,9 -1,3 2,2 1,9 3,3 7,5 7,1 16 9 42 23 E 1027,0 45 0 0,0
14.12.2018 07:00:00 2,9 -0,5 1,9 2,0 3,4 7,5 7,1 10 5 29 16 E 1026,6 34 0 0,0
14.12.2018 06:00:00 2,1 0,2 1,5 2,0 3,4 7,6 7,1 22 12 38 21 SE 1026,6 35 0 0,0
14.12.2018 05:00:00 2,2 0,7 1,7 2,0 3,4 7,6 7,1 18 10 38 21 ESE 1026,4 36 0 0,0
14.12.2018 04:00:00 2,6 0,5 1,7 1,9 3,4 7,6 7,1 16 9 35 19 E 1026,2 48 0 0,0
14.12.2018 03:00:00 1,6 0,9 0,7 1,8 3,5 7,6 7,1 5 3 28 15 ENE 1026,4 22 0 0,1
14.12.2018 02:00:00 1,8 1,1 1,7 1,9 3,5 7,6 7,0 8 4 36 20 ENE 1026,4 38 0 0,3
14.12.2018 01:00:00 1,8 0,0 0,4 1,8 3,6 7,6 7,1 6 3 32 17 E 1026,1 33 0 0,0
14.12.2018 00:00:00 3,3 0,2 2,8 1,9 3,7 7,6 7,1 8 4 34 18 E 1026,1 54 0 0,0
13.12.2018 23:00:00 2,5 -0,6 2,0 1,8 3,8 7,6 7,1 39 21 56 31 ENE 1026,2 35 0 0,0
13.12.2018 22:00:00 2,8 0,1 1,7 2,0 3,9 7,6 7,1 27 15 48 26 ENE 1026,1 51 0 0,0
13.12.2018 21:00:00 3,3 0,8 2,9 2,4 3,9 7,6 7,1 37 20 54 29 ENE 1025,8 47 0 0,0
13.12.2018 20:00:00 3,6 0,5 3,2 2,4 4,0 7,6 7,2 40 22 53 29 ENE 1025,6 42 0 0,0
13.12.2018 19:00:00 3,5 -0,4 2,8 2,5 4,1 7,6 7,2 46 25 55 30 ENE 1025,5 48 0 0,0
13.12.2018 18:00:00 3,9 0,0 3,2 2,8 4,1 7,6 7,2 39 21 59 32 ENE 1025,5 52 0 0,0
13.12.2018 17:00:00 3,7 0,0 2,8 3,0 4,2 7,6 7,2 42 23 61 33 E 1025,5 53 0 0,0
13.12.2018 16:00:00 3,4 0,4 2,4 3,2 4,2 7,6 7,2 42 23 63 34 ENE 1025,8 53 0 0,2
13.12.2018 15:00:00 3,8 1,2 3,3 3,6 4,2 7,6 7,2 32 18 50 27 ENE 1025,8 52 0 0,0
13.12.2018 14:00:00 3,4 1,5 3,2 3,7 4,2 7,6 7,2 42 23 52 28 ENE 1026,0 48 0 0,0
13.12.2018 13:00:00 3,9 1,0 3,5 3,8 4,1 7,6 7,2 32 17 45 24 ENE 1026,2 56 11 0,0
13.12.2018 12:00:00 3,9 1,7 3,7 3,6 4,0 7,6 7,2 28 15 53 29 E 1026,4 62 1 0,0
13.12.2018 11:00:00 4,1 1,0 3,2 3,4 4,0 7,6 7,2 39 21 53 28 E 1026,6 55 0 0,0
13.12.2018 10:00:00 3,5 1,3 2,8 3,0 4,0 7,6 7,2 41 22 59 32 ENE 1026,8 47 0 0,3
13.12.2018 09:00:00 3,7 2,0 3,2 3,0 4,0 7,6 7,2 36 20 58 31 ENE 1026,7 39 0 0,0
13.12.2018 08:00:00 4,0 1,8 3,3 2,9 4,0 7,6 7,2 40 22 49 26 ENE 1026,7 59 0 0,0
13.12.2018 07:00:00 4,0 1,5 3,0 2,7 4,0 7,6 7,2 35 19 50 27 E 1026,5 47 0 0,0
13.12.2018 06:00:00 3,5 2,0 2,7 2,8 4,1 7,7 7,2 13 7 37 20 E 1026,8 50 0 0,4
13.12.2018 05:00:00 3,3 1,8 2,7 2,7 4,1 7,7 7,2 9 5 46 25 ENE 1027,1 40 0 0,0
13.12.2018 04:00:00 2,2 1,3 1,0 2,9 4,2 7,7 7,2 12 6 34 19 ENE 1027,5 31 0 0,7
13.12.2018 03:00:00 2,9 2,2 2,5 2,8 4,2 7,7 7,2 15 8 35 19 NNE 1027,8 24 0 0,3
13.12.2018 02:00:00 2,6 1,8 2,0 2,9 4,3 7,7 7,1 27 15 40 22 NNE 1027,9 22 0 0,2
13.12.2018 01:00:00 2,6 1,7 2,2 2,9 4,4 7,7 7,2 22 12 37 20 NNE 1028,3 13 0 0,0
13.12.2018 00:00:00 3,0 0,8 2,2 2,9 4,4 7,7 7,2 30 16 44 24 NE 1028,6 45 0 0,0
12.12.2018 23:00:00 3,1 0,3 2,7 3,1 4,5 7,7 7,1 31 17 49 26 ENE 1028,8 62 0 0,0
12.12.2018 22:00:00 3,2 0,4 3,0 3,2 4,6 7,7 7,1 34 19 46 25 ENE 1028,8 42 0 0,0
12.12.2018 21:00:00 3,4 0,9 3,2 3,4 4,6 7,7 7,1 36 19 55 30 ENE 1028,7 45 0 0,0
12.12.2018 20:00:00 3,3 0,4 3,2 3,5 4,7 7,7 7,1 39 21 56 30 ENE 1028,7 50 0 0,0
12.12.2018 19:00:00 3,8 1,2 3,6 3,7 4,7 7,7 7,1 45 24 57 31 ENE 1028,5 39 0 0,0
12.12.2018 18:00:00 4,5 2,0 4,2 3,8 4,8 7,7 7,1 50 27 67 36 ENE 1027,9 46 0 0,0
12.12.2018 17:00:00 4,7 2,3 4,3 3,7 4,9 7,7 7,1 53 28 63 34 NE 1027,5 38 0 0,0
12.12.2018 16:00:00 4,4 2,5 3,5 4,1 4,9 7,7 7,1 54 29 66 36 NE 1027,1 48 0 0,1
12.12.2018 15:00:00 4,9 3,4 4,5 4,8 4,9 7,7 7,1 48 26 60 32 NE 1027,0 39 2 0,1
12.12.2018 14:00:00 5,0 2,6 4,7 5,0 4,8 7,7 7,1 39 21 55 30 NE 1026,8 53 9 0,0
12.12.2018 13:00:00 5,4 2,8 5,3 5,1 4,7 7,7 7,1 45 24 55 30 NE 1026,4 32 15 0,0
12.12.2018 12:00:00 5,4 2,5 5,0 4,6 4,6 7,7 7,1 46 25 55 30 NE 1026,4 44 18 0,0
12.12.2018 11:00:00 5,6 2,4 5,6 4,3 4,6 7,7 7,1 49 26 56 31 NE 1026,3 44 8 0,0
12.12.2018 10:00:00 5,2 2,6 4,8 3,9 4,6 7,7 7,1 44 24 54 29 NE 1025,9 38 0 0,0
12.12.2018 09:00:00 4,7 3,0 4,4 3,9 4,6 7,7 7,2 37 20 51 28 NNE 1025,6 30 0 0,0
12.12.2018 08:00:00 4,3 2,8 3,4 3,9 4,6 7,7 7,2 35 19 55 30 NNE 1025,2 32 0 0,0
12.12.2018 07:00:00 4,8 2,5 4,2 3,9 4,6 7,8 7,2 39 21 55 30 NE 1024,5 34 0 0,0
12.12.2018 06:00:00 4,8 2,5 4,2 4,0 4,6 7,8 7,2 41 22 56 30 NE 1024,0 32 0 0,0
12.12.2018 05:00:00 5,1 3,1 4,3 4,1 4,6 7,8 7,3 42 23 60 32 NE 1023,5 27 0 0,0
12.12.2018 04:00:00 4,9 3,4 4,2 4,2 4,6 7,8 7,3 39 21 54 29 NE 1023,0 34 0 0,4
12.12.2018 03:00:00 5,3 3,4 4,6 4,1 4,5 7,8 7,3 36 19 53 29 NE 1022,6 37 0 0,0
12.12.2018 02:00:00 5,5 3,4 4,7 4,0 4,5 7,8 7,3 39 21 55 30 NE 1021,9 41 0 0,0
12.12.2018 01:00:00 5,1 3,3 4,5 3,9 4,5 7,8 7,3 40 22 59 32 NE 1021,4 48 0 0,1
12.12.2018 00:00:00 5,2 3,0 4,9 3,8 4,4 7,8 7,4 35 19 51 28 NNE 1021,2 50 0 0,0
11.12.2018 23:00:00 5,0 2,5 4,6 3,7 4,4 7,8 7,4 31 17 51 28 NNE 1020,5 57 0 0,0
11.12.2018 22:00:00 4,9 2,4 4,5 3,6 4,4 7,8 7,4 26 14 47 26 NNE 1020,1 52 0 0,0
11.12.2018 21:00:00 4,9 2,0 4,3 3,4 4,5 7,8 7,4 29 16 46 25 NNE 1019,7 48 0 0,0
11.12.2018 20:00:00 4,8 1,7 4,3 3,2 4,5 7,8 7,4 31 17 48 26 NNE 1019,0 55 0 0,0
11.12.2018 19:00:00 4,4 1,6 3,2 3,1 4,6 7,8 7,5 33 18 53 29 NNE 1018,3 47 0 0,0
11.12.2018 18:00:00 4,3 1,4 2,8 3,6 4,6 7,8 7,5 30 16 54 29 NNE 1017,6 64 0 0,0
11.12.2018 17:00:00 4,9 1,1 4,5 3,9 4,7 7,8 7,5 35 19 48 26 NNE 1017,0 75 0 0,0
11.12.2018 16:00:00 4,9 1,9 4,5 4,1 4,6 7,8 7,5 27 15 47 26 NNE 1016,3 66 0 0,0
11.12.2018 15:00:00 4,9 2,0 4,5 4,2 4,6 7,8 7,6 23 13 49 26 NNE 1015,5 52 0 0,0
11.12.2018 14:00:00 4,8 2,1 4,6 4,3 4,5 7,8 7,6 19 11 42 23 N 1014,8 66 0 0,0
11.12.2018 13:00:00 4,6 2,0 4,3 4,3 4,5 7,8 7,6 18 10 40 21 N 1014,1 38 0 0,0
11.12.2018 12:00:00 4,6 2,0 4,2 4,1 4,4 7,8 7,6 18 10 39 21 N 1013,7 39 0 0,0
11.12.2018 11:00:00 4,5 2,1 4,1 3,7 4,4 7,8 7,6 18 10 39 21 N 1013,1 38 0 0,0
11.12.2018 10:00:00 4,5 1,8 4,0 3,4 4,3 7,8 7,6 15 8 39 21 N 1012,7 41 0 0,0
11.12.2018 09:00:00 4,4 1,6 4,0 3,1 4,4 7,8 7,5 15 8 36 19 N 1011,9 52 0 0,0
11.12.2018 08:00:00 3,8 0,8 3,4 2,8 4,5 7,8 7,5 16 9 42 23 N 1011,2 70 0 0,0
11.12.2018 07:00:00 3,3 -1,1 2,8 2,9 4,5 7,8 7,5 22 12 53 28 N 1010,4 72 0 0,0
11.12.2018 06:00:00 3,7 -0,1 3,3 3,1 4,6 7,8 7,5 22 12 54 29 N 1009,3 52 0 0,0
11.12.2018 05:00:00 3,9 0,5 3,4 3,3 4,7 7,9 7,4 21 11 50 27 N 1008,3 65 0 0,0
11.12.2018 04:00:00 4,2 1,1 3,8 3,5 4,7 7,9 7,4 18 10 46 25 N 1007,3 62 0 0,0
11.12.2018 03:00:00 4,4 1,6 3,9 3,7 4,7 7,9 7,4 22 12 48 26 NNW 1006,3 49 0 0,0
11.12.2018 02:00:00 4,1 1,9 3,4 3,8 4,7 7,9 7,2 22 12 55 30 NNW 1005,7 25 0 0,5
11.12.2018 01:00:00 4,5 2,4 3,7 3,9 4,7 7,9 7,2 27 15 65 35 NNW 1005,1 24 0 0,3
11.12.2018 00:00:00 4,7 2,3 4,3 3,8 4,7 7,9 7,2 41 22 60 33 WNW 1004,9 38 0 0,7
10.12.2018 23:00:00 4,7 1,9 3,6 3,8 4,7 7,9 7,3 41 22 64 34 NW 1004,9 10 0 0,1
10.12.2018 22:00:00 5,6 1,7 5,0 3,7 4,7 7,9 7,4 31 17 53 28 WNW 1004,7 42 0 0,0
10.12.2018 21:00:00 5,5 1,5 4,9 3,6 4,7 7,9 7,4 29 15 49 26 WNW 1004,7 40 0 0,0
10.12.2018 20:00:00 5,2 1,4 4,6 3,4 4,7 7,9 7,4 29 16 51 28 WNW 1004,6 38 0 0,0
10.12.2018 19:00:00 5,2 1,4 4,5 3,4 4,8 7,9 7,4 32 17 49 26 WNW 1004,5 34 0 0,0
10.12.2018 18:00:00 5,1 1,4 4,0 3,2 4,9 7,9 7,4 31 17 50 27 WNW 1004,1 31 0 0,0
10.12.2018 17:00:00 5,2 1,4 4,0 3,3 5,0 7,9 7,5 32 17 51 27 WNW 1003,9 33 0 0,0
10.12.2018 16:00:00 4,3 1,4 3,4 3,9 5,1 7,9 7,6 45 24 65 35 W 1003,5 39 0 0,0
10.12.2018 15:00:00 5,6 1,3 5,3 4,3 5,0 7,9 7,7 45 24 64 34 W 1003,4 29 2 0,0
10.12.2018 14:00:00 5,8 1,4 5,9 4,4 5,0 7,9 7,7 45 24 64 35 W 1003,3 28 23 0,0
10.12.2018 13:00:00 5,7 1,4 5,6 4,3 5,0 7,9 7,7 49 26 63 34 W 1003,3 35 5 0,0
10.12.2018 12:00:00 5,7 1,2 5,6 4,4 4,9 7,9 7,6 39 21 67 36 WNW 1003,3 31 11 0,0
10.12.2018 11:00:00 5,9 1,4 5,9 4,0 4,9 7,9 7,6 41 22 63 34 W 1003,0 40 31 0,0
10.12.2018 10:00:00 5,6 1,1 4,8 3,9 4,9 7,9 7,6 38 20 67 36 WNW 1002,7 33 0 0,0
10.12.2018 09:00:00 5,4 2,0 4,4 3,8 4,9 7,9 7,6 35 19 70 38 WNW 1002,3 27 0 0,0
10.12.2018 08:00:00 5,7 0,9 5,1 3,7 4,9 7,9 7,7 41 22 65 35 W 1001,7 38 0 0,0
10.12.2018 07:00:00 5,6 0,9 5,1 3,5 5,0 7,8 7,7 38 21 60 32 WNW 1001,2 31 0 0,0
10.12.2018 06:00:00 5,4 0,3 4,8 3,3 5,1 7,8 7,7 40 21 63 34 WNW 1000,7 36 0 0,0
10.12.2018 05:00:00 5,1 1,3 4,3 3,2 5,2 7,8 7,7 38 20 59 32 WNW 1000,2 31 0 0,0
10.12.2018 04:00:00 5,0 1,2 3,8 3,2 5,3 7,8 7,7 40 22 61 33 WNW 999,5 30 0 0,0
10.12.2018 03:00:00 5,1 1,9 4,0 3,6 5,4 7,8 7,7 34 19 66 36 WNW 999,0 25 0 0,0
10.12.2018 02:00:00 5,8 2,6 4,7 3,8 5,5 7,8 7,6 46 25 61 33 W 998,3 34 0 0,0
10.12.2018 01:00:00 5,7 3,3 4,6 3,6 5,7 7,8 7,7 39 21 56 30 W 997,6 39 0 0,0
10.12.2018 00:00:00 5,3 1,8 4,1 3,8 5,8 7,8 7,7 35 19 57 31 WNW 997,2 44 0 0,0
09.12.2018 23:00:00 5,6 0,9 4,8 4,2 6,0 7,8 7,7 46 25 72 39 NW 995,9 47 0 0,0
09.12.2018 22:00:00 5,5 0,6 4,7 4,9 6,1 7,8 7,8 46 25 68 37 NW 994,4 49 0 0,0
09.12.2018 21:00:00 6,0 3,1 5,2 5,5 6,1 7,8 7,8 44 24 61 33 NW 992,4 48 0 0,0
09.12.2018 20:00:00 6,1 4,1 5,7 5,5 6,2 7,8 7,8 34 19 51 27 W 990,9 45 0 0,0
09.12.2018 19:00:00 6,5 4,8 5,9 5,7 6,2 7,8 7,8 35 19 51 28 W 989,9 30 0 0,0
09.12.2018 18:00:00 6,5 5,1 5,9 5,8 6,2 7,8 7,7 36 19 49 27 W 989,1 30 0 0,0
09.12.2018 17:00:00 6,5 4,9 6,1 5,8 6,3 7,8 7,8 38 21 48 26 W 988,5 38 0 0,0
09.12.2018 16:00:00 6,6 5,4 6,2 6,0 6,3 7,8 7,8 33 18 47 26 WSW 988,2 36 0 0,0
09.12.2018 15:00:00 6,7 5,2 6,2 6,3 6,2 7,8 7,8 36 20 51 27 WSW 987,7 34 0 0,0
09.12.2018 14:00:00 7,0 5,5 6,8 6,5 6,2 7,8 7,8 40 21 55 30 W 987,1 25 3 0,0
09.12.2018 13:00:00 6,9 5,8 6,5 6,6 6,1 7,8 7,8 43 23 55 30 WSW 986,5 30 0 0,1
09.12.2018 12:00:00 6,9 5,8 7,0 6,5 6,0 7,8 7,7 38 21 51 27 WSW 986,1 29 0 0,0

tt = Température de l'air
td = dewpoint
tt 5cm = Température de l'air 5cm
tt -5cm = Température de l'air -5cm
tt -20cm = Température de l'air -20cm
tt -100cm = Température de l'air -100cm
tw = water temperature
ff = Vitesse du vent
fx = gusts
dd = Direction du vent
ppp = reduced air pressure
vv = visibility
sd = Ensoleillement
rr = Quantités de précipitations

stations d'obs. à proximité